SCP
0 0 -0 -0 0 0 -0 0 0 0 0 0 0 0 0 0 0 0 0 0 0 0 0 0 1 1 0 0 0 0 0 0 0 0 0 0 0 0 0 0 0 0 0 0 0 0 0 0 0
0 0 0 0 0 0 0 0 0 0 0 0 0 0 0 0 0 0 0 0 0 0 0 0 1 1 0 0 0 0 0 0 0 0 0 0 0 0 0 0 0 0 0 0 0 0 0 0 0
0 0 0 0 0 0 0 0 0 0 0 0 0 0 0 0 0 0 0 0 0 0 0 0 1 1 1 0 0 0 0 0 0 0 0 0 0 0 0 0 0 0 0 0 0 0 0 0 0
0 0 0 0 0 0 0 0 0 0 0 0 0 0 0 0 0 0 0 0 0 0 0 0 1 1 1 1 1 1 0 0 0 0 0 0 0 0 0 0 0 0 0 0 0 0 0 0 0
0 0 0 0 0 0 0 0 0 0 0 0 0 0 0 0 0 0 0 0 0 0 0 0 1 1 1 1 1 1 1 1 1 0 0 0 0 0 0 0 0 0 0 0 0 0 0 0 0
0 0 0 0 0 0 0 0 0 0 0 0 0 0 0 0 0 0 0 0 0 0 0 0 1 1 1 1 2 1 1 1 1 1 1 1 1 1 1 0 0 0 0 0 0 0 0 0 0
0 0 0 0 0 0 0 0 0 0 0 0 0 0 0 0 0 0 0 0 0 0 0 0 1 1 1 2 2 1 1 1 1 1 1 1 1 1 1 0 0 0 0 0 0 0 0 0 0
0 0 0 0 0 0 0 0 0 0 0 0 0 0 0 0 0 0 0 0 0 0 0 0 1 1 1 1 2 2 2 2 2 1 1 1 1 1 0 0 0 0 0 0 0 0 0 0 0
0 0 0 0 0 0 0 0 0 0 0 0 0 0 0 0 0 0 0 0 0 0 0 0 0 1 1 1 1 2 2 2 2 1 1 1 1 0 0 0 0 0 0 0 0 0 0 0 0
0 0 0 0 0 0 0 0 0 0 0 0 0 0 0 0 0 0 0 0 0 0 0 0 1 1 1 1 1 2 1 1 1 1 1 1 0 0 0 0 0 0 0 0 0 0 0 0 0
0 0 0 0 0 0 0 0 0 0 0 0 0 0 0 0 0 0 0 0 0 0 0 0 1 2 1 1 1 2 1 1 1 1 1 1 0 0 0 0 0 0 0 0 0 0 0 0 0
0 0 0 0 0 0 0 0 0 0 0 0 0 0 0 0 0 0 0 0 0 0 0 0 1 1 2 1 1 1 1 1 1 1 1 1 1 1 0 0 0 0 0 0 0 0 0 0 0
0 0 0 0 0 0 0 0 0 0 0 0 0 0 0 0 0 0 0 0 0 0 0 0 1 2 2 1 1 1 1 1 1 0 1 1 0 1 1 0 0 0 0 0 0 0 0 0 0
0 0 0 0 0 0 0 0 0 0 0 0 0 0 0 0 0 0 0 0 -0 0 0 0 1 1 1 1 1 1 1 1 1 0 0 1 1 1 0 0 0 0 0 0 0 0 0 0 0
0 0 0 0 0 0 0 0 0 0 0 0 0 0 0 0 0 0 0 0 -0 0 0 0 1 1 2 2 2 1 1 1 0 0 1 1 1 1 1 0 0 0 0 0 0 0 0 0 0
0 0 0 0 0 0 0 0 0 0 0 0 0 0 0 -0 0 0 0 0 0 0 0 0 0 1 1 2 2 1 1 0 0 1 1 1 1 1 1 1 0 0 0 0 0 0 0 0 0
0 0 0 0 0 0 0 0 0 0 0 0 0 0 0 0 0 0 0 0 0 0 0 0 0 1 1 2 1 1 1 0 1 1 1 1 1 1 1 1 0 1 0 0 0 0 0 0 0
0 0 0 0 0 0 0 0 0 0 0 0 0 0 0 0 0 0 0 0 0 0 0 0 0 1 1 1 1 1 0 0 1 1 1 1 1 1 1 1 1 0 0 0 0 0 0 0 0
0 0 0 0 0 0 0 0 0 0 0 0 0 0 0 0 0 0 0 0 0 0 0 0 0 1 1 1 0 0 0 0 1 1 1 0 0 0 1 1 0 0 0 0 -0 0 0 0 0
0 0 0 0 0 0 0 0 0 0 0 0 0 0 0 0 0 0 0 0 0 0 0 0 0 0 1 0 0 0 0 0 0 1 1 0 0 0 0 0 0 0 0 0 0 0 0 0 0
0 0 0 0 0 0 0 0 0 0 0 0 0 0 0 0 0 0 0 0 0 0 0 0 0 0 0 0 0 1 1 1 0 1 1 1 0 0 0 0 0 0 0 0 0 0 0 0 0
0 0 0 0 0 0 0 0 0 0 0 0 0 0 0 0 0 0 0 0 0 0 0 0 0 0 0 0 0 0 0 0 0 0 1 1 0 0 0 0 0 0 0 0 0 0 -0 -0 -0
0 0 0 0 0 0 0 0 0 0 0 0 0 0 0 0 0 0 0 0 0 0 0 0 0 0 0 0 0 0 0 0 0 0 0 0 0 0 0 0 0 0 0 -0 -0 -0 0 0 0
0 0 0 0 0 -0 0 0 -0 -0 -0 -0 0 0 0 0 0 0 0 0 0 0 0 0 0 0 0 0 0 0 0 0 0 0 0 0 0 0 0 0 0 -0 0 -0 0 0 0 0 0
0 0 0 0 0 0 0 0 0 -0 -0 -0 0 0 0 0 0 0 0 0 0 0 0 0 0 0 0 0 0 0 0 0 0 0 0 0 0 0 0 -0 -0 0 0 0 0 0 0 0 0
0 0 0 0 0 0 0 0 -0 0 -0 -0 -0 0 0 0 0 0 0 0 0 0 -0 0 0 0 0 0 0 0 0 0 0 0 0 0 0 0 0 -0 -0 0 0 0 0 0 0 0 0
0 0 0 0 0 0 0 0 -0 -0 -0 -0 -0 0 0 0 0 0 -0 0 -0 -0 -0 -0 -0 0 0 0 0 0 0 0 0 0 0 0 0 0 -0 0 0 0 -0 -0 -0 0 0 0 0
0 0 0 0 0 0 0 0 -0 0 0 0 -0 -0 0 0 0 -0 0 0 -0 -0 -0 -0 -0 -0 -0 -0 0 0 0 0 0 0 0 0 0 0 0 0 0 0 0 0 0 0 0 0 0
0 0 0 0 0 0 0 0 0 0 0 -0 0 0 0 0 0 0 0 -0 -0 -0 -0 -0 -0 -0 -0 0 0 0 0 0 0 0 0 0 0 0 0 0 0 0 0 0 0 0 0 -0 0
0 0 0 0 0 0 0 0 0 0 0 0 0 0 0 0 0 0 0 -0 -0 -0 -0 -0 -0 -0 -0 0 0 0 0 0 0 0 0 -0 0 0 0 0 0 0 0 0 0 0 0 -0 -0
Wind_Speed_500mb
27 31 19 9 11 8 23 12 6 15 14 4 6 13 10 14 16 12 5 17 22 29 24 22 30 31 29 26 21 23 17 13 9 10 12 14 17 19 20 20 21 21 23 25 24 23 23 20 22
31 30 12 9 13 17 19 12 20 6 5 14 20 25 17 18 15 14 9 20 22 27 25 23 28 31 32 26 23 21 19 12 9 12 14 16 18 20 21 21 21 20 21 25 28 27 24 21 20
30 18 17 10 17 19 7 20 11 5 4 5 11 11 4 5 5 8 12 21 27 28 25 26 30 32 33 28 24 23 19 13 11 12 15 18 19 22 23 22 24 25 25 24 23 27 24 23 24
19 12 14 18 24 18 17 17 7 9 11 7 8 12 8 8 4 6 13 25 30 29 28 26 32 34 34 30 26 24 21 17 13 14 16 20 21 21 21 25 27 33 31 28 28 26 27 26 28
19 16 20 23 29 21 17 21 13 17 6 8 6 8 8 6 11 15 12 29 31 33 34 30 35 38 37 36 33 30 27 23 21 20 20 22 22 21 23 29 35 34 37 36 37 34 37 36 33
24 16 19 26 31 16 21 26 23 24 14 6 9 8 4 9 17 12 12 25 29 33 37 35 37 40 40 40 40 41 38 34 27 27 24 24 25 23 30 35 36 39 43 44 44 43 41 39 38
29 18 28 30 25 23 26 19 26 33 24 13 8 13 9 3 20 19 16 20 33 35 41 38 40 43 43 43 49 49 43 38 33 32 28 27 28 28 35 37 40 39 38 41 42 44 46 44 44
29 20 37 27 27 24 4 21 10 16 14 3 5 12 14 22 22 21 18 21 32 41 42 46 46 47 47 51 55 53 46 41 38 36 33 32 31 34 37 39 38 38 39 40 40 44 46 48 49
27 22 29 38 28 23 11 17 5 6 22 24 21 26 30 30 23 26 25 26 33 44 46 46 43 43 47 47 49 54 50 45 44 42 39 36 30 28 31 33 40 43 45 42 39 37 38 42 49
35 29 46 42 27 30 19 20 18 21 34 42 39 40 26 27 33 34 35 37 37 45 49 49 50 49 44 42 42 47 47 44 40 32 29 30 28 29 33 36 46 42 43 41 39 37 34 29 26
44 48 45 53 52 47 43 46 46 37 36 51 51 47 43 46 43 44 43 39 39 41 49 53 61 62 52 42 39 36 35 33 32 33 33 30 29 27 28 27 28 27 31 27 25 26 25 26 32
58 59 56 64 64 49 41 58 54 55 50 62 58 54 60 56 50 50 50 50 45 41 46 55 58 67 63 44 41 37 36 33 31 28 35 34 29 28 29 27 27 28 27 29 25 23 24 27 31
61 51 62 58 63 59 59 62 64 67 58 63 55 54 50 50 57 62 59 53 51 46 41 55 59 66 68 64 42 41 41 37 31 29 30 33 30 28 27 29 28 31 29 28 26 27 26 24 25
64 68 71 70 67 64 55 59 66 68 61 68 55 56 55 52 60 58 57 56 49 44 38 49 62 64 68 66 60 55 51 38 40 27 25 35 32 29 30 30 29 31 32 30 27 25 23 26 27
63 53 54 49 62 56 64 54 57 65 56 63 56 48 52 55 60 57 52 51 47 44 42 51 61 62 69 65 61 56 48 46 29 24 33 35 35 32 35 31 31 33 36 38 33 27 25 24 27
40 49 51 53 45 49 35 61 48 46 49 48 41 48 56 58 60 57 49 49 51 47 47 53 48 56 69 67 60 56 45 40 28 25 26 32 35 36 38 39 39 36 34 40 31 26 25 26 27
49 52 63 52 49 47 50 69 50 59 45 38 43 52 57 65 65 57 47 42 43 43 45 49 43 52 63 62 61 53 48 36 26 27 24 27 30 33 39 40 34 36 35 35 31 26 28 26 31
55 50 53 57 42 33 55 65 45 54 51 49 51 55 61 61 62 54 44 42 48 45 40 33 38 51 58 55 50 39 30 27 25 22 23 27 28 33 39 38 37 34 34 31 29 27 26 26 23
52 52 63 51 50 48 53 60 55 54 39 53 61 59 61 65 65 45 39 38 32 30 27 31 41 52 52 45 40 30 26 23 21 21 25 27 27 35 35 38 34 34 33 32 25 28 29 28 28
57 56 60 48 38 44 47 58 54 44 50 55 67 60 65 59 52 36 32 21 20 19 24 34 42 48 48 40 31 23 22 20 19 19 24 22 23 28 31 31 32 30 31 34 31 30 26 28 29
62 61 48 51 37 37 45 56 55 53 67 69 62 54 55 55 49 36 21 13 16 22 27 36 43 47 47 33 30 24 18 16 14 16 14 14 16 21 24 27 26 24 25 30 30 30 27 25 27
65 49 48 48 39 45 42 49 55 50 54 44 58 61 64 49 41 26 20 19 23 27 33 39 46 51 45 34 22 21 15 14 16 14 15 13 15 19 18 17 18 20 26 26 25 19 21 24 22
59 35 44 46 42 46 53 38 42 38 47 49 51 54 45 35 27 26 23 25 29 36 43 46 49 45 36 32 20 14 12 12 9 11 14 16 16 15 10 13 18 21 21 18 16 17 23 21 21
44 36 42 37 32 41 43 41 43 46 53 48 42 43 35 21 18 25 28 34 40 44 45 45 44 36 30 25 20 15 11 9 8 12 15 17 20 12 15 14 17 15 13 13 14 17 18 14 17
46 44 19 25 27 30 33 31 46 42 39 44 32 25 23 19 26 34 40 44 48 48 46 41 36 31 27 23 18 11 8 7 7 10 12 15 10 11 14 15 14 11 10 12 14 17 15 15 13
59 54 28 36 29 27 38 21 29 23 36 56 49 24 23 24 30 38 44 49 50 47 44 38 33 29 26 22 17 11 8 3 5 7 5 4 10 15 15 14 12 10 11 13 15 16 16 13 12
57 54 49 15 9 16 19 27 27 36 31 26 27 39 28 24 33 43 48 49 49 46 41 37 31 27 25 23 17 11 7 3 4 2 4 3 11 15 14 14 14 12 12 12 14 15 16 15 13
57 48 44 27 31 24 16 24 14 6 13 20 24 27 27 32 39 46 48 49 45 42 39 34 28 27 26 22 16 11 7 2 5 4 8 10 16 19 15 12 10 12 11 9 10 13 15 14 14
35 45 41 34 23 25 13 11 13 25 13 23 25 33 38 43 47 50 50 48 44 41 37 33 30 28 26 20 16 12 7 3 4 4 9 12 17 19 14 12 8 9 10 7 8 14 12 9 16
48 43 51 28 40 20 15 5 8 8 6 16 13 27 40 45 49 52 52 50 46 42 37 33 32 27 24 19 15 10 7 3 4 7 12 15 16 18 17 14 8 7 8 8 10 11 10 13 19
Wind_Direction_500mb
152 149 158 184 225 237 241 193 1 166 185 162 252 233 256 306 308 337 301 191 171 181 185 173 192 198 202 203 203 205 215 229 262 283 287 286 284 276 267 259 253 258 271 276 269 264 264 250 248
157 153 173 224 248 222 195 186 195 180 338 276 247 245 245 263 273 275 249 210 182 182 181 181 185 192 200 201 202 206 218 234 273 291 300 298 293 284 273 262 245 255 268 271 276 270 264 267 257
160 176 236 231 238 247 241 181 134 183 256 243 220 244 241 253 258 269 253 210 200 188 185 186 188 190 199 201 205 212 220 239 269 286 302 305 294 286 274 273 260 273 281 276 269 266 269 270 270
167 200 236 247 240 238 264 170 153 241 177 240 278 241 214 275 312 268 240 220 209 196 192 195 194 193 198 200 204 207 215 231 258 285 300 305 296 282 265 273 274 276 275 275 275 264 260 261 262
193 235 249 238 250 253 231 261 276 257 223 240 244 256 269 21 331 292 253 217 213 199 199 206 202 200 205 208 211 216 223 234 249 266 286 302 300 283 273 275 272 273 270 270 265 261 253 254 254
219 256 238 240 244 230 250 248 250 244 233 204 213 274 282 28 13 338 279 230 218 208 210 211 211 207 212 217 221 226 229 234 247 257 273 292 299 284 274 272 269 270 271 267 264 259 256 248 251
236 229 249 260 272 264 257 254 241 239 213 203 324 266 279 334 351 346 314 250 227 219 218 220 220 214 217 223 229 233 236 239 248 258 268 281 289 276 271 275 278 275 273 275 267 255 256 248 256
235 253 259 247 257 270 246 234 259 235 234 237 281 261 275 339 319 324 307 274 243 226 223 222 224 221 221 224 228 234 240 243 250 262 268 275 282 276 273 274 284 277 279 282 272 257 250 251 253
224 239 247 250 249 246 188 236 211 269 271 272 264 269 287 295 300 304 302 279 258 238 229 221 222 218 221 222 229 232 237 242 250 258 263 269 266 266 273 274 268 275 284 283 276 265 257 251 248
216 230 244 249 263 270 241 246 278 278 274 276 273 271 276 274 290 289 285 281 272 250 238 225 221 218 216 213 214 232 233 239 244 247 254 265 258 259 258 262 276 277 279 275 277 272 259 249 248
228 241 249 248 256 260 280 271 272 264 271 272 283 298 288 283 281 281 277 273 268 265 245 233 230 226 218 215 213 217 221 228 235 242 252 263 257 262 269 276 280 287 287 281 280 278 274 254 252
246 244 244 263 262 261 260 273 279 267 270 274 285 286 289 288 285 282 277 272 270 269 249 232 226 227 225 212 217 218 217 224 234 247 267 267 262 262 265 263 268 269 269 265 268 264 259 250 249
243 251 252 252 262 265 268 268 270 276 280 277 282 286 281 283 284 284 278 271 267 266 252 229 225 230 226 224 216 216 220 231 237 249 262 262 253 255 258 262 259 259 257 254 256 260 260 259 255
247 247 250 257 256 261 260 265 270 271 277 278 278 282 283 286 287 286 277 268 266 270 255 228 226 229 224 227 224 230 234 231 245 244 247 262 256 255 254 258 262 259 253 251 247 253 251 259 253
257 254 257 247 252 252 261 265 261 267 268 271 277 280 284 289 294 286 278 269 267 269 263 237 235 226 224 224 227 228 233 235 234 239 256 260 262 257 255 256 259 259 259 253 244 249 254 252 252
249 243 249 232 232 245 239 260 260 268 266 271 270 280 288 290 292 285 276 266 269 265 259 248 236 221 221 217 220 222 224 235 231 241 247 263 267 263 260 259 264 270 266 257 239 238 242 244 244
231 237 236 245 242 238 233 256 252 259 256 260 273 281 287 295 293 282 279 274 271 265 253 251 230 211 213 215 215 213 224 228 232 245 249 258 260 257 261 261 263 257 263 247 235 233 235 246 239
229 232 243 258 240 224 241 249 254 258 258 273 277 281 289 294 290 286 284 276 270 257 249 233 213 205 203 203 202 205 214 222 233 241 252 258 263 258 260 260 254 266 255 238 234 233 237 240 232
246 243 246 245 244 242 236 253 260 258 267 270 277 286 285 289 292 286 281 275 259 240 222 203 194 194 186 186 190 198 211 224 233 243 256 262 265 265 259 252 259 260 242 243 237 234 240 238 219
236 242 247 255 247 242 253 265 274 269 262 271 276 278 282 284 287 285 271 260 236 208 187 183 183 186 184 185 181 193 205 223 230 244 254 260 258 258 247 254 257 253 235 232 233 236 233 230 210
227 232 239 249 252 249 259 266 267 265 259 257 268 266 271 274 279 274 244 211 186 179 177 172 173 177 179 177 187 199 207 224 248 262 265 255 257 258 258 257 256 243 217 229 234 237 228 221 207
231 222 241 250 252 253 245 268 266 270 268 262 264 269 266 268 264 244 210 181 175 162 159 162 167 176 183 185 182 185 206 230 236 236 242 248 250 260 261 254 227 206 222 231 234 227 216 205 196
233 224 230 241 251 266 256 260 271 268 267 266 265 255 253 251 247 212 188 172 157 150 150 155 163 171 182 182 173 183 206 230 230 239 247 254 253 258 235 207 197 213 223 221 196 200 187 211 190
220 217 224 234 243 249 251 253 266 263 264 267 260 256 227 208 197 172 160 151 145 146 147 154 164 168 174 175 178 180 200 208 229 256 263 263 266 233 192 196 204 211 200 197 182 188 199 201 197
188 193 198 220 224 253 242 243 252 261 256 253 254 240 163 178 163 155 152 149 149 149 152 156 159 160 167 171 172 182 193 199 251 266 284 289 228 189 191 182 189 181 182 166 178 186 200 209 211
192 189 207 215 229 244 206 240 243 252 255 249 247 225 167 167 160 157 153 152 151 153 155 156 158 161 169 170 175 175 170 224 276 283 271 248 190 147 173 167 168 173 171 167 178 186 197 201 186
192 213 213 244 268 259 176 239 263 258 249 246 232 208 186 164 161 155 152 152 154 156 157 156 160 166 168 171 174 168 167 196 228 193 99 133 143 168 160 161 143 143 147 157 174 184 192 195 182
196 195 203 211 225 218 228 251 245 303 210 214 187 187 176 167 161 156 155 155 156 156 156 155 160 165 167 170 167 167 177 166 174 141 136 145 160 162 162 157 141 140 149 157 159 182 183 173 179
188 198 209 213 232 204 237 229 202 249 214 197 199 181 168 167 160 158 158 159 156 157 157 157 163 166 167 166 168 171 156 151 170 177 156 146 157 165 161 160 152 154 153 170 182 168 172 192 170
198 201 198 197 195 237 237 205 299 228 133 206 118 155 159 159 158 159 161 159 159 159 161 165 167 168 169 165 167 176 150 156 191 138 141 153 163 164 168 163 142 156 170 192 187 166 158 158 171
Wind_Speed_850mb
27 31 19 9 11 8 23 12 6 15 14 4 6 13 10 14 16 12 5 17 22 29 24 22 30 31 29 26 21 23 17 13 9 10 12 14 17 19 20 20 21 21 23 25 24 23 23 20 22
31 30 12 9 13 17 19 12 20 6 5 14 20 25 17 18 15 14 9 20 22 27 25 23 28 31 32 26 23 21 19 12 9 12 14 16 18 20 21 21 21 20 21 25 28 27 24 21 20
30 18 17 10 17 19 7 20 11 5 4 5 11 11 4 5 5 8 12 21 27 28 25 26 30 32 33 28 24 23 19 13 11 12 15 18 19 22 23 22 24 25 25 24 23 27 24 23 24
19 12 14 18 24 18 17 17 7 9 11 7 8 12 8 8 4 6 13 25 30 29 28 26 32 34 34 30 26 24 21 17 13 14 16 20 21 21 21 25 27 33 31 28 28 26 27 26 28
19 16 20 23 29 21 17 21 13 17 6 8 6 8 8 6 11 15 12 29 31 33 34 30 35 38 37 36 33 30 27 23 21 20 20 22 22 21 23 29 35 34 37 36 37 34 37 36 33
24 16 19 26 31 16 21 26 23 24 14 6 9 8 4 9 17 12 12 25 29 33 37 35 37 40 40 40 40 41 38 34 27 27 24 24 25 23 30 35 36 39 43 44 44 43 41 39 38
29 18 28 30 25 23 26 19 26 33 24 13 8 13 9 3 20 19 16 20 33 35 41 38 40 43 43 43 49 49 43 38 33 32 28 27 28 28 35 37 40 39 38 41 42 44 46 44 44
29 20 37 27 27 24 4 21 10 16 14 3 5 12 14 22 22 21 18 21 32 41 42 46 46 47 47 51 55 53 46 41 38 36 33 32 31 34 37 39 38 38 39 40 40 44 46 48 49
27 22 29 38 28 23 11 17 5 6 22 24 21 26 30 30 23 26 25 26 33 44 46 46 43 43 47 47 49 54 50 45 44 42 39 36 30 28 31 33 40 43 45 42 39 37 38 42 49
35 29 46 42 27 30 19 20 18 21 34 42 39 40 26 27 33 34 35 37 37 45 49 49 50 49 44 42 42 47 47 44 40 32 29 30 28 29 33 36 46 42 43 41 39 37 34 29 26
44 48 45 53 52 47 43 46 46 37 36 51 51 47 43 46 43 44 43 39 39 41 49 53 61 62 52 42 39 36 35 33 32 33 33 30 29 27 28 27 28 27 31 27 25 26 25 26 32
58 59 56 64 64 49 41 58 54 55 50 62 58 54 60 56 50 50 50 50 45 41 46 55 58 67 63 44 41 37 36 33 31 28 35 34 29 28 29 27 27 28 27 29 25 23 24 27 31
61 51 62 58 63 59 59 62 64 67 58 63 55 54 50 50 57 62 59 53 51 46 41 55 59 66 68 64 42 41 41 37 31 29 30 33 30 28 27 29 28 31 29 28 26 27 26 24 25
64 68 71 70 67 64 55 59 66 68 61 68 55 56 55 52 60 58 57 56 49 44 38 49 62 64 68 66 60 55 51 38 40 27 25 35 32 29 30 30 29 31 32 30 27 25 23 26 27
63 53 54 49 62 56 64 54 57 65 56 63 56 48 52 55 60 57 52 51 47 44 42 51 61 62 69 65 61 56 48 46 29 24 33 35 35 32 35 31 31 33 36 38 33 27 25 24 27
40 49 51 53 45 49 35 61 48 46 49 48 41 48 56 58 60 57 49 49 51 47 47 53 48 56 69 67 60 56 45 40 28 25 26 32 35 36 38 39 39 36 34 40 31 26 25 26 27
49 52 63 52 49 47 50 69 50 59 45 38 43 52 57 65 65 57 47 42 43 43 45 49 43 52 63 62 61 53 48 36 26 27 24 27 30 33 39 40 34 36 35 35 31 26 28 26 31
55 50 53 57 42 33 55 65 45 54 51 49 51 55 61 61 62 54 44 42 48 45 40 33 38 51 58 55 50 39 30 27 25 22 23 27 28 33 39 38 37 34 34 31 29 27 26 26 23
52 52 63 51 50 48 53 60 55 54 39 53 61 59 61 65 65 45 39 38 32 30 27 31 41 52 52 45 40 30 26 23 21 21 25 27 27 35 35 38 34 34 33 32 25 28 29 28 28
57 56 60 48 38 44 47 58 54 44 50 55 67 60 65 59 52 36 32 21 20 19 24 34 42 48 48 40 31 23 22 20 19 19 24 22 23 28 31 31 32 30 31 34 31 30 26 28 29
62 61 48 51 37 37 45 56 55 53 67 69 62 54 55 55 49 36 21 13 16 22 27 36 43 47 47 33 30 24 18 16 14 16 14 14 16 21 24 27 26 24 25 30 30 30 27 25 27
65 49 48 48 39 45 42 49 55 50 54 44 58 61 64 49 41 26 20 19 23 27 33 39 46 51 45 34 22 21 15 14 16 14 15 13 15 19 18 17 18 20 26 26 25 19 21 24 22
59 35 44 46 42 46 53 38 42 38 47 49 51 54 45 35 27 26 23 25 29 36 43 46 49 45 36 32 20 14 12 12 9 11 14 16 16 15 10 13 18 21 21 18 16 17 23 21 21
44 36 42 37 32 41 43 41 43 46 53 48 42 43 35 21 18 25 28 34 40 44 45 45 44 36 30 25 20 15 11 9 8 12 15 17 20 12 15 14 17 15 13 13 14 17 18 14 17
46 44 19 25 27 30 33 31 46 42 39 44 32 25 23 19 26 34 40 44 48 48 46 41 36 31 27 23 18 11 8 7 7 10 12 15 10 11 14 15 14 11 10 12 14 17 15 15 13
59 54 28 36 29 27 38 21 29 23 36 56 49 24 23 24 30 38 44 49 50 47 44 38 33 29 26 22 17 11 8 3 5 7 5 4 10 15 15 14 12 10 11 13 15 16 16 13 12
57 54 49 15 9 16 19 27 27 36 31 26 27 39 28 24 33 43 48 49 49 46 41 37 31 27 25 23 17 11 7 3 4 2 4 3 11 15 14 14 14 12 12 12 14 15 16 15 13
57 48 44 27 31 24 16 24 14 6 13 20 24 27 27 32 39 46 48 49 45 42 39 34 28 27 26 22 16 11 7 2 5 4 8 10 16 19 15 12 10 12 11 9 10 13 15 14 14
35 45 41 34 23 25 13 11 13 25 13 23 25 33 38 43 47 50 50 48 44 41 37 33 30 28 26 20 16 12 7 3 4 4 9 12 17 19 14 12 8 9 10 7 8 14 12 9 16
48 43 51 28 40 20 15 5 8 8 6 16 13 27 40 45 49 52 52 50 46 42 37 33 32 27 24 19 15 10 7 3 4 7 12 15 16 18 17 14 8 7 8 8 10 11 10 13 19
Wind_Direction_850mb
152 149 158 184 225 237 241 193 1 166 185 162 252 233 256 306 308 337 301 191 171 181 185 173 192 198 202 203 203 205 215 229 262 283 287 286 284 276 267 259 253 258 271 276 269 264 264 250 248
157 153 173 224 248 222 195 186 195 180 338 276 247 245 245 263 273 275 249 210 182 182 181 181 185 192 200 201 202 206 218 234 273 291 300 298 293 284 273 262 245 255 268 271 276 270 264 267 257
160 176 236 231 238 247 241 181 134 183 256 243 220 244 241 253 258 269 253 210 200 188 185 186 188 190 199 201 205 212 220 239 269 286 302 305 294 286 274 273 260 273 281 276 269 266 269 270 270
167 200 236 247 240 238 264 170 153 241 177 240 278 241 214 275 312 268 240 220 209 196 192 195 194 193 198 200 204 207 215 231 258 285 300 305 296 282 265 273 274 276 275 275 275 264 260 261 262
193 235 249 238 250 253 231 261 276 257 223 240 244 256 269 21 331 292 253 217 213 199 199 206 202 200 205 208 211 216 223 234 249 266 286 302 300 283 273 275 272 273 270 270 265 261 253 254 254
219 256 238 240 244 230 250 248 250 244 233 204 213 274 282 28 13 338 279 230 218 208 210 211 211 207 212 217 221 226 229 234 247 257 273 292 299 284 274 272 269 270 271 267 264 259 256 248 251
236 229 249 260 272 264 257 254 241 239 213 203 324 266 279 334 351 346 314 250 227 219 218 220 220 214 217 223 229 233 236 239 248 258 268 281 289 276 271 275 278 275 273 275 267 255 256 248 256
235 253 259 247 257 270 246 234 259 235 234 237 281 261 275 339 319 324 307 274 243 226 223 222 224 221 221 224 228 234 240 243 250 262 268 275 282 276 273 274 284 277 279 282 272 257 250 251 253
224 239 247 250 249 246 188 236 211 269 271 272 264 269 287 295 300 304 302 279 258 238 229 221 222 218 221 222 229 232 237 242 250 258 263 269 266 266 273 274 268 275 284 283 276 265 257 251 248
216 230 244 249 263 270 241 246 278 278 274 276 273 271 276 274 290 289 285 281 272 250 238 225 221 218 216 213 214 232 233 239 244 247 254 265 258 259 258 262 276 277 279 275 277 272 259 249 248
228 241 249 248 256 260 280 271 272 264 271 272 283 298 288 283 281 281 277 273 268 265 245 233 230 226 218 215 213 217 221 228 235 242 252 263 257 262 269 276 280 287 287 281 280 278 274 254 252
246 244 244 263 262 261 260 273 279 267 270 274 285 286 289 288 285 282 277 272 270 269 249 232 226 227 225 212 217 218 217 224 234 247 267 267 262 262 265 263 268 269 269 265 268 264 259 250 249
243 251 252 252 262 265 268 268 270 276 280 277 282 286 281 283 284 284 278 271 267 266 252 229 225 230 226 224 216 216 220 231 237 249 262 262 253 255 258 262 259 259 257 254 256 260 260 259 255
247 247 250 257 256 261 260 265 270 271 277 278 278 282 283 286 287 286 277 268 266 270 255 228 226 229 224 227 224 230 234 231 245 244 247 262 256 255 254 258 262 259 253 251 247 253 251 259 253
257 254 257 247 252 252 261 265 261 267 268 271 277 280 284 289 294 286 278 269 267 269 263 237 235 226 224 224 227 228 233 235 234 239 256 260 262 257 255 256 259 259 259 253 244 249 254 252 252
249 243 249 232 232 245 239 260 260 268 266 271 270 280 288 290 292 285 276 266 269 265 259 248 236 221 221 217 220 222 224 235 231 241 247 263 267 263 260 259 264 270 266 257 239 238 242 244 244
231 237 236 245 242 238 233 256 252 259 256 260 273 281 287 295 293 282 279 274 271 265 253 251 230 211 213 215 215 213 224 228 232 245 249 258 260 257 261 261 263 257 263 247 235 233 235 246 239
229 232 243 258 240 224 241 249 254 258 258 273 277 281 289 294 290 286 284 276 270 257 249 233 213 205 203 203 202 205 214 222 233 241 252 258 263 258 260 260 254 266 255 238 234 233 237 240 232
246 243 246 245 244 242 236 253 260 258 267 270 277 286 285 289 292 286 281 275 259 240 222 203 194 194 186 186 190 198 211 224 233 243 256 262 265 265 259 252 259 260 242 243 237 234 240 238 219
236 242 247 255 247 242 253 265 274 269 262 271 276 278 282 284 287 285 271 260 236 208 187 183 183 186 184 185 181 193 205 223 230 244 254 260 258 258 247 254 257 253 235 232 233 236 233 230 210
227 232 239 249 252 249 259 266 267 265 259 257 268 266 271 274 279 274 244 211 186 179 177 172 173 177 179 177 187 199 207 224 248 262 265 255 257 258 258 257 256 243 217 229 234 237 228 221 207
231 222 241 250 252 253 245 268 266 270 268 262 264 269 266 268 264 244 210 181 175 162 159 162 167 176 183 185 182 185 206 230 236 236 242 248 250 260 261 254 227 206 222 231 234 227 216 205 196
233 224 230 241 251 266 256 260 271 268 267 266 265 255 253 251 247 212 188 172 157 150 150 155 163 171 182 182 173 183 206 230 230 239 247 254 253 258 235 207 197 213 223 221 196 200 187 211 190
220 217 224 234 243 249 251 253 266 263 264 267 260 256 227 208 197 172 160 151 145 146 147 154 164 168 174 175 178 180 200 208 229 256 263 263 266 233 192 196 204 211 200 197 182 188 199 201 197
188 193 198 220 224 253 242 243 252 261 256 253 254 240 163 178 163 155 152 149 149 149 152 156 159 160 167 171 172 182 193 199 251 266 284 289 228 189 191 182 189 181 182 166 178 186 200 209 211
192 189 207 215 229 244 206 240 243 252 255 249 247 225 167 167 160 157 153 152 151 153 155 156 158 161 169 170 175 175 170 224 276 283 271 248 190 147 173 167 168 173 171 167 178 186 197 201 186
192 213 213 244 268 259 176 239 263 258 249 246 232 208 186 164 161 155 152 152 154 156 157 156 160 166 168 171 174 168 167 196 228 193 99 133 143 168 160 161 143 143 147 157 174 184 192 195 182
196 195 203 211 225 218 228 251 245 303 210 214 187 187 176 167 161 156 155 155 156 156 156 155 160 165 167 170 167 167 177 166 174 141 136 145 160 162 162 157 141 140 149 157 159 182 183 173 179
188 198 209 213 232 204 237 229 202 249 214 197 199 181 168 167 160 158 158 159 156 157 157 157 163 166 167 166 168 171 156 151 170 177 156 146 157 165 161 160 152 154 153 170 182 168 172 192 170
198 201 198 197 195 237 237 205 299 228 133 206 118 155 159 159 158 159 161 159 159 159 161 165 167 168 169 165 167 176 150 156 191 138 141 153 163 164 168 163 142 156 170 192 187 166 158 158 171